Regional Weather Roundup
Issued by NWS Charleston, SC

Current Version | Previous Version | Graphics & Text | Print | Product List | Glossary On
Versions: 1 2 3 4 5 6 7 8 9 10 11 12 13 14 15 16 17 18 19 20 21 22 23 24 25 26 27 28 29 30 31 32 33 34 35 36 37 38 39 40 41 42 43 44 45 46 47 48 49 50
000 ASUS42 KCHS 281726 RWRCHS REGIONAL WEATHER ROUNDUP NATIONAL WEATHER SERVICE CHARLESTON SC 100 PM EDT SAT MAR 28 2015 NOTE: "FAIR" INDICATES FEW OR NO CLOUDS BELOW 12,000 FEET WITH NO SIGNIFICANT WEATHER AND/OR OBSTRUCTIONS TO VISIBILITY. NOT ALL STATIONS ARE QUALITY CONTROLLED BY THE NATIONAL WEATHER SERVICE. USE DATA WITH CAUTION...ESPECIALLY DEWPOINT OBSERVATIONS. SCZ027-030-031-034>040-042>050-281800- ...SOUTHEAST SOUTH CAROLINA... CITY SKY/WX TMP DP RH WIND PRES REMARKS N CHARLESTON MOSUNNY 54 28 36 W13G18 30.07F WATERFRONT PRK N/A 54 N/A N/A W7G13 N/A MOUNT PLEASANT FAIR 55 32 41 W12G17 30.07S PINOPOLIS NOT AVBL MONCKS CORNER PTSUNNY 54 30 40 W5 30.06F SUMMERVILLE FAIR 54 32 43 W12 30.07F BEAUFORT MCAS SUNNY 54 27 35 W15G22 30.09F BEAUFORT ARPT FAIR 55 32 41 W16 30.09S HAZE HILTON HEAD IS MOSUNNY 54 30 40 W10G18 30.10F WALTERBORO MOSUNNY 52 28 40 NW8G17 30.09S ALLENDALE FAIR 54 25 32 W8G16 30.09S ...SOUTHERN MIDLANDS AND PEE DEE... CITY SKY/WX TMP DP RH WIND PRES REMARKS GEORGETOWN NOT AVBL KINGSTREE NOT AVBL ORANGEBURG PTSUNNY 50 26 39 NW10G23 30.08F BARNWELL FAIR 54 30 40 NW7 30.10F AIKEN FAIR 48 25 40 W12G20 30.13S MANNING FAIR N/A N/A N/A W6 30.07F COLUMBIA MOSUNNY 51 24 34 W12G20 30.09S SUMTER MOSUNNY 52 25 35 NW13G21 30.05F FLORENCE PTSUNNY 50 28 42 W10 30.06F MYRTLE BEACH PTSUNNY 52 30 43 N12 30.06F N MYRTLE BEACH PTSUNNY 50 31 48 CALM 30.04F $$ GAZ063-065-086>088-099>101-113>116-118-119-134>141-150-281800- ...SOUTHEAST GEORGIA... CITY SKY/WX TMP DP RH WIND PRES REMARKS SAVANNAH ARPT MOSUNNY 54 27 35 W14G21 30.11F HUNTER AAF MOSUNNY 55 32 41 W16G23 30.09F FORT STEWART MOSUNNY 55 30 38 NW15G21 30.11F STATESBORO SUNNY 55 28 35 W9G21 30.11F SYLVANIA MOSUNNY 53 32 45 NW9G21 30.12S CLAXTON FAIR 54 32 43 W9 30.13S ...CSRA...CENTRAL AND FAR SOUTHEAST GEORGIA... CITY SKY/WX TMP DP RH WIND PRES REMARKS THOMSON SUNNY 53 26 36 CALM 30.16S AUGUSTA-BUSH SUNNY 52 23 32 NW9G16 30.11F AUGUSTA-DANIEL SUNNY 51 24 34 W10 30.11F SWAINSBORO FAIR 54 3 13 NW14G21 30.13S VIDALIA MOSUNNY 52 32 46 W12 30.14S EASTMAN FAIR 54 31 42 NW12 30.18F HAZLEHURST FAIR 54 32 43 W8 30.14F ALMA MOSUNNY 54 29 38 NW8G21 30.15F WAYCROSS MOSUNNY 59 36 41 W8G20 30.16S JESUP FAIR 57 34 41 NW14G20 30.15S BAXLEY FAIR 55 32 41 W12G21 30.14F BRUNSWICK SUNNY 59 32 36 W10G18 30.14S SAINT SIMONS SUNNY 56 31 38 W10G22 30.13F $$ SCZ027-028-034-036>038-045-046-048>050-GAZ119-141-281800- ...LAKE AND SUPPLEMENTAL COASTAL OBSERVATIONS... STATION/POSITION TIME TEMP WIND PRES WAVE SWELL AIR SEA DIR/SP/G HT/PER HT/PER/DIR (UTC) (F) (DEG/KT/KT) (MB) (FT/S) (FT/S/D) UPR LAKE MARION NOT AVBL WINYAH BAY 1600 49 310/ 5 1017.0 LAKE MURRAY 1700 46 290/ 9/ 12 1018.3F ACE BASIN NERRS 1600 53 300/ 5 1018.0S FORT PULASKI 1600 290/ 10/ 12 N/A SAPELO ISLAND 1700 55 260/ 13 1020.0S $$ ANZ835-935-AMZ111-154-330-350-352-354-370-450-454-472-281800- ...C-MAN AND BUOY OBSERVATIONS... STATION/POSITION TIME TEMP WIND PRES WAVE SWELL AIR SEA DIR/SP/G HT/PER HT/PER/DIR (UTC) (F) (DEG/KT/KT) (MB) (FT/S) (FT/S/D) BUOY 41004 1650 51 68 300/ 10/ 16 1017.9R 5/ 6 3/ 6 BUOY 41008 1650 51 60 270/ 12/ 16 1019.9F 2/ 4 2/ 90/ 9 FOLLY BEACH CMAN 1700 52 280/ 6/ 8 1018.2F CAPERS NEARSHORE NOT AVBL FRIPP NEARSHORE 1600 52 290/ 12/ 14 1018.8F STATION/POSITION TIME TEMP WIND PRES WAVE SWELL AIR SEA DIR/SP/G HT/PER HT/PER/DIR (UTC) (F) (DEG/KT/KT) (MB) (FT/S) (FT/S/D) 5E ST. MARYS GA 1621 61 N/A 2/ 9 FRYING PAN BUOY 1650 49 64 330/ 12/ 16 1017.3S 4/ 7 3/160/ 7 BUOY 41025 NOT AVBL CAPE LOOKOUT NC 1700 48 290/ 6/ 7 1015.6F BUOY 41002 1650 60 68 300/ 21/ 25 1015.0R 14/10 7/240/10 BUOY 41010 1620 64 75 300/ 17/ 21 1018.9R ST AUGUSTINE FL 1700 58 60 300/ 9/ 15 1021.2F $$

USA.gov is the U.S. government's official web portal to all federal, state and local government web resources and services.